Time,TemperatureF,DewpointF,PressureIn,WindDirection,WindDirectionDegrees,WindSpeedMPH,WindSpeedGustMPH,Humidity,HourlyPrecipIn,Conditions,Clouds,dailyrainin,SoftwareType,DateUTC
2013-01-12 00:06:00,41.2,35.2,30.10,SSW,202,11.4,-999.0,79,-99.99,,,0.00,Acu-Link.com,2013-01-12 05:06:00,
2013-01-12 00:21:00,40.6,36.7,30.10,SSW,202,8.9,-999.0,86,-99.99,,,0.00,Acu-Link.com,2013-01-12 05:21:00,
2013-01-12 00:36:00,40.3,37.3,30.09,SSW,202,10.4,-999.0,89,-99.99,,,0.01,Acu-Link.com,2013-01-12 05:36:00,
2013-01-12 00:52:00,40.1,37.4,30.09,SSW,202,11.4,-999.0,90,-99.99,,,0.01,Acu-Link.com,2013-01-12 05:52:00,
2013-01-12 01:07:00,40.5,37.8,30.07,SSW,202,11.4,-999.0,90,-99.99,,,0.01,Acu-Link.com,2013-01-12 06:07:00,
2013-01-12 01:22:00,40.6,37.6,30.07,SSW,202,13.5,-999.0,89,-99.99,,,0.01,Acu-Link.com,2013-01-12 06:22:00,
2013-01-12 01:37:00,41.0,37.7,30.07,SW,225,11.4,-999.0,88,-99.99,,,0.01,Acu-Link.com,2013-01-12 06:37:00,
2013-01-12 01:53:00,40.6,37.0,30.07,SW,225,10.9,-999.0,87,-99.99,,,0.01,Acu-Link.com,2013-01-12 06:53:00,
2013-01-12 02:08:00,41.5,36.7,30.08,SSW,202,9.4,-999.0,83,-99.99,,,0.01,Acu-Link.com,2013-01-12 07:08:00,
2013-01-12 02:23:00,41.7,36.6,30.08,SSW,202,9.4,-999.0,82,-99.99,,,0.01,Acu-Link.com,2013-01-12 07:23:00,
2013-01-12 02:39:00,41.9,36.8,30.07,SSW,202,11.9,-999.0,82,-99.99,,,0.01,Acu-Link.com,2013-01-12 07:39:00,
2013-01-12 02:54:00,42.1,35.1,30.06,SSW,202,8.9,-999.0,76,-99.99,,,0.01,Acu-Link.com,2013-01-12 07:54:00,
2013-01-12 03:09:00,41.9,36.8,30.06,SSW,202,12.5,-999.0,82,-99.99,,,0.01,Acu-Link.com,2013-01-12 08:09:00,
2013-01-12 03:24:00,42.1,36.7,30.06,SSW,202,11.9,-999.0,81,-99.99,,,0.01,Acu-Link.com,2013-01-12 08:24:00,
2013-01-12 03:40:00,42.4,36.4,30.04,SSW,202,12.5,-999.0,79,-99.99,,,0.01,Acu-Link.com,2013-01-12 08:40:00,
2013-01-12 03:55:00,42.4,37.0,30.05,SW,225,11.4,-999.0,81,-99.99,,,0.01,Acu-Link.com,2013-01-12 08:55:00,
2013-01-12 04:10:00,42.4,37.0,30.04,SW,225,14.0,-999.0,81,-99.99,,,0.01,Acu-Link.com,2013-01-12 09:10:00,
2013-01-12 04:25:00,42.4,37.0,30.03,SSW,202,10.4,-999.0,81,-99.99,,,0.01,Acu-Link.com,2013-01-12 09:25:00,
2013-01-12 04:41:00,42.6,36.6,30.04,SSW,202,10.4,-999.0,79,-99.99,,,0.01,Acu-Link.com,2013-01-12 09:41:00,
2013-01-12 04:56:00,42.6,37.2,30.04,SW,225,6.8,-999.0,81,-99.99,,,0.01,Acu-Link.com,2013-01-12 09:56:00,
2013-01-12 05:11:00,42.3,37.5,30.04,SSW,202,7.8,-999.0,83,-99.99,,,0.01,Acu-Link.com,2013-01-12 10:11:00,
2013-01-12 05:27:00,42.1,37.6,30.03,SSW,202,7.3,-999.0,84,-99.99,,,0.01,Acu-Link.com,2013-01-12 10:27:00,
2013-01-12 05:42:00,42.1,38.2,30.03,SW,225,7.8,-999.0,86,-99.99,,,0.01,Acu-Link.com,2013-01-12 10:42:00,
2013-01-12 05:57:00,41.9,38.3,30.04,SSW,202,5.8,-999.0,87,-99.99,,,0.01,Acu-Link.com,2013-01-12 10:57:00,
2013-01-12 06:13:00,41.9,38.9,30.03,SW,225,7.8,-999.0,89,-99.99,,,0.01,Acu-Link.com,2013-01-12 11:13:00,
2013-01-12 06:28:00,41.9,39.2,30.04,SSW,202,7.3,-999.0,90,-99.99,,,0.01,Acu-Link.com,2013-01-12 11:28:00,
2013-01-12 06:43:00,41.9,39.5,30.03,SW,225,5.8,-999.0,91,-99.99,,,0.01,Acu-Link.com,2013-01-12 11:43:00,
2013-01-12 06:59:00,41.7,39.6,30.02,SW,225,5.3,-999.0,92,-99.99,,,0.01,Acu-Link.com,2013-01-12 11:59:00,
2013-01-12 07:14:00,41.7,39.6,30.03,SW,225,6.8,-999.0,92,-99.99,,,0.01,Acu-Link.com,2013-01-12 12:14:00,
2013-01-12 07:29:00,41.7,39.6,30.04,WSW,247,3.7,-999.0,92,-99.99,,,0.01,Acu-Link.com,2013-01-12 12:29:00,
2013-01-12 07:45:00,38.8,36.4,30.06,NNW,337,7.3,-999.0,91,-99.99,,,0.01,Acu-Link.com,2013-01-12 12:45:00,
2013-01-12 08:00:00,38.7,36.6,30.05,North,0,4.2,-999.0,92,-99.99,,,0.01,Acu-Link.com,2013-01-12 13:00:00,
2013-01-12 08:15:00,38.5,36.4,30.05,NNW,337,2.7,-999.0,92,-99.99,,,0.01,Acu-Link.com,2013-01-12 13:15:00,
2013-01-12 08:31:00,38.3,36.5,30.04,NNW,337,5.3,-999.0,93,-99.99,,,0.01,Acu-Link.com,2013-01-12 13:31:00,
2013-01-12 08:46:00,38.3,36.5,30.06,NNW,337,4.7,-999.0,93,-99.99,,,0.01,Acu-Link.com,2013-01-12 13:46:00,
2013-01-12 09:01:00,37.9,36.1,30.07,NNW,337,2.7,-999.0,93,-99.99,,,0.01,Acu-Link.com,2013-01-12 14:01:00,
2013-01-12 09:16:00,37.9,36.1,30.06,NNW,337,3.2,-999.0,93,-99.99,,,0.01,Acu-Link.com,2013-01-12 14:16:00,
2013-01-12 09:32:00,38.1,36.3,30.06,NNW,337,0.0,-999.0,93,-99.99,,,0.01,Acu-Link.com,2013-01-12 14:32:00,
2013-01-12 09:47:00,38.3,36.5,30.05,SW,225,2.2,-999.0,93,-99.99,,,0.01,Acu-Link.com,2013-01-12 14:47:00,
2013-01-12 10:02:00,38.3,36.5,30.06,WNW,292,2.2,-999.0,93,-99.99,,,0.01,Acu-Link.com,2013-01-12 15:02:00,
2013-01-12 10:18:00,38.5,36.7,30.05,NNW,337,2.2,-999.0,93,-99.99,,,0.01,Acu-Link.com,2013-01-12 15:18:00,
2013-01-12 10:33:00,39.2,37.1,30.03,ESE,112,4.2,-999.0,92,-99.99,,,0.01,Acu-Link.com,2013-01-12 15:33:00,
2013-01-12 10:48:00,40.8,37.8,30.03,NE,45,2.2,-999.0,89,-99.99,,,0.01,Acu-Link.com,2013-01-12 15:48:00,
2013-01-12 11:04:00,41.0,37.1,30.03,ENE,67,1.7,-999.0,86,-99.99,,,0.01,Acu-Link.com,2013-01-12 16:04:00,
2013-01-12 11:19:00,41.7,37.8,30.02,WSW,247,0.0,-999.0,86,-99.99,,,0.01,Acu-Link.com,2013-01-12 16:19:00,
2013-01-12 11:34:00,42.6,38.1,30.02,SSW,202,0.0,-999.0,84,-99.99,,,0.01,Acu-Link.com,2013-01-12 16:34:00,
2013-01-12 11:50:00,41.9,37.4,30.00,South,180,0.0,-999.0,84,-99.99,,,0.01,Acu-Link.com,2013-01-12 16:50:00,
2013-01-12 12:05:00,42.4,37.6,29.99,SW,225,1.7,-999.0,83,-99.99,,,0.01,Acu-Link.com,2013-01-12 17:05:00,
2013-01-12 12:20:00,44.1,39.0,29.99,SE,135,0.0,-999.0,82,-99.99,,,0.01,Acu-Link.com,2013-01-12 17:20:00,
2013-01-12 12:36:00,43.3,37.6,29.98,ESE,112,3.2,-999.0,80,-99.99,,,0.01,Acu-Link.com,2013-01-12 17:36:00,
2013-01-12 12:51:00,43.7,37.9,29.99,SW,225,1.7,-999.0,80,-99.99,,,0.01,Acu-Link.com,2013-01-12 17:51:00,
2013-01-12 13:06:00,42.8,37.7,29.99,SSW,202,0.0,-999.0,82,-99.99,,,0.01,Acu-Link.com,2013-01-12 18:06:00,
2013-01-12 13:22:00,43.3,37.9,29.99,NNW,337,0.0,-999.0,81,-99.99,,,0.01,Acu-Link.com,2013-01-12 18:22:00,
2013-01-12 13:37:00,42.6,37.5,29.99,South,180,0.0,-999.0,82,-99.99,,,0.01,Acu-Link.com,2013-01-12 18:37:00,
2013-01-12 13:52:00,43.0,37.9,30.01,NW,315,0.0,-999.0,82,-99.99,,,0.01,Acu-Link.com,2013-01-12 18:52:00,
2013-01-12 14:08:00,42.4,37.3,30.01,West,270,0.0,-999.0,82,-99.99,,,0.01,Acu-Link.com,2013-01-12 19:08:00,
2013-01-12 14:23:00,41.9,37.4,30.01,SW,225,0.0,-999.0,84,-99.99,,,0.01,Acu-Link.com,2013-01-12 19:23:00,
2013-01-12 14:38:00,41.4,37.5,30.01,SSW,202,1.7,-999.0,86,-99.99,,,0.01,Acu-Link.com,2013-01-12 19:38:00,
2013-01-12 14:54:00,41.2,37.6,30.01,SW,225,3.7,-999.0,87,-99.99,,,0.01,Acu-Link.com,2013-01-12 19:54:00,
2013-01-12 15:09:00,41.0,37.7,30.00,SSW,202,5.8,-999.0,88,-99.99,,,0.01,Acu-Link.com,2013-01-12 20:09:00,
2013-01-12 15:25:00,41.0,38.0,30.00,SSW,202,5.3,-999.0,89,-99.99,,,0.01,Acu-Link.com,2013-01-12 20:25:00,
2013-01-12 15:40:00,41.0,38.6,29.99,SSW,202,5.8,-999.0,91,-99.99,,,0.01,Acu-Link.com,2013-01-12 20:40:00,
2013-01-12 15:55:00,41.0,38.9,30.01,SW,225,4.7,-999.0,92,-99.99,,,0.01,Acu-Link.com,2013-01-12 20:55:00,
2013-01-12 16:11:00,41.0,38.9,30.00,West,270,4.2,-999.0,92,-99.99,,,0.01,Acu-Link.com,2013-01-12 21:11:00,
2013-01-12 16:26:00,41.0,39.1,30.00,SSW,202,3.7,-999.0,93,-99.99,,,0.01,Acu-Link.com,2013-01-12 21:26:00,
2013-01-12 16:42:00,41.0,39.4,29.99,WSW,247,2.7,-999.0,94,-99.99,,,0.01,Acu-Link.com,2013-01-12 21:42:00,
2013-01-12 16:57:00,40.8,39.2,29.99,West,270,2.2,-999.0,94,-99.99,,,0.01,Acu-Link.com,2013-01-12 21:57:00,
2013-01-12 17:12:00,40.8,39.2,29.98,WNW,292,1.7,-999.0,94,-99.99,,,0.01,Acu-Link.com,2013-01-12 22:12:00,
2013-01-12 17:27:00,40.8,39.2,29.98,West,270,0.0,-999.0,94,-99.99,,,0.01,Acu-Link.com,2013-01-12 22:27:00,
2013-01-12 17:43:00,40.6,39.0,29.99,WSW,247,0.0,-999.0,94,-99.99,,,0.01,Acu-Link.com,2013-01-12 22:43:00,
2013-01-12 17:58:00,40.5,38.9,29.97,West,270,2.2,-999.0,94,-99.99,,,0.01,Acu-Link.com,2013-01-12 22:58:00,
2013-01-12 18:14:00,40.6,39.3,29.97,West,270,2.7,-999.0,95,-99.99,,,0.01,Acu-Link.com,2013-01-12 23:14:00,
2013-01-12 18:29:00,40.6,39.3,29.98,West,270,2.2,-999.0,95,-99.99,,,0.01,Acu-Link.com,2013-01-12 23:29:00,
2013-01-12 18:44:00,40.8,39.5,29.97,West,270,3.2,-999.0,95,-99.99,,,0.01,Acu-Link.com,2013-01-12 23:44:00,
2013-01-12 19:00:00,41.0,39.7,29.96,West,270,4.2,-999.0,95,-99.99,,,0.01,Acu-Link.com,2013-01-13 00:00:00,
2013-01-12 19:15:00,41.0,39.7,29.96,West,270,4.2,-999.0,95,-99.99,,,0.01,Acu-Link.com,2013-01-13 00:15:00,
2013-01-12 19:30:00,41.0,39.7,29.96,WSW,247,5.8,-999.0,95,-99.99,,,0.01,Acu-Link.com,2013-01-13 00:30:00,
2013-01-12 19:46:00,41.2,39.9,29.97,SW,225,5.3,-999.0,95,-99.99,,,0.01,Acu-Link.com,2013-01-13 00:46:00,
2013-01-12 20:01:00,41.2,39.9,29.96,SW,225,7.3,-999.0,95,-99.99,,,0.01,Acu-Link.com,2013-01-13 01:01:00,
2013-01-12 20:17:00,41.2,40.1,29.96,SW,225,5.8,-999.0,96,-99.99,,,0.01,Acu-Link.com,2013-01-13 01:17:00,
2013-01-12 20:32:00,41.4,40.3,29.96,SW,225,5.8,-999.0,96,-99.99,,,0.01,Acu-Link.com,2013-01-13 01:32:00,
2013-01-12 20:47:00,41.4,40.3,29.96,WSW,247,6.8,-999.0,96,-99.99,,,0.01,Acu-Link.com,2013-01-13 01:47:00,
2013-01-12 21:03:00,41.4,40.3,29.97,SW,225,7.3,-999.0,96,-99.99,,,0.01,Acu-Link.com,2013-01-13 02:03:00,
2013-01-12 21:18:00,41.5,40.4,29.96,SW,225,8.3,-999.0,96,-99.99,,,0.01,Acu-Link.com,2013-01-13 02:18:00,
2013-01-12 21:33:00,41.5,40.4,29.96,WSW,247,7.3,-999.0,96,-99.99,,,0.01,Acu-Link.com,2013-01-13 02:33:00,
2013-01-12 21:48:00,41.5,40.4,29.97,SSW,202,6.3,-999.0,96,-99.99,,,0.01,Acu-Link.com,2013-01-13 02:48:00,
2013-01-12 22:04:00,41.5,40.4,29.97,SW,225,6.8,-999.0,96,-99.99,,,0.01,Acu-Link.com,2013-01-13 03:04:00,
2013-01-12 22:19:00,41.7,40.6,29.96,SW,225,6.8,-999.0,96,-99.99,,,0.01,Acu-Link.com,2013-01-13 03:19:00,
2013-01-12 22:34:00,41.7,40.6,29.96,SW,225,5.8,-999.0,96,-99.99,,,0.01,Acu-Link.com,2013-01-13 03:34:00,
2013-01-12 22:50:00,41.7,40.6,29.96,SW,225,7.3,-999.0,96,-99.99,,,0.01,Acu-Link.com,2013-01-13 03:50:00,
2013-01-12 23:05:00,41.7,40.6,29.95,SW,225,9.4,-999.0,96,-99.99,,,0.01,Acu-Link.com,2013-01-13 04:05:00,
2013-01-12 23:20:00,42.1,41.0,29.96,SW,225,11.9,-999.0,96,-99.99,,,0.01,Acu-Link.com,2013-01-13 04:20:00,
2013-01-12 23:35:00,42.4,41.3,29.95,SW,225,10.9,-999.0,96,-99.99,,,0.01,Acu-Link.com,2013-01-13 04:35:00,
2013-01-12 23:51:00,42.6,41.5,29.96,WSW,247,8.3,-999.0,96,-99.99,,,0.01,Acu-Link.com,2013-01-13 04:51:00,